Lincoln, NE

6:36 PM CST on February 26, 2017 (GMT -0600)
Lincoln Municipal

Weather History for KLNK - September, 2011

Change the Weather History Date:

Thursday, September 29, 2011

  Actual Average Record
Temperature  
Mean Temperature 62 °F 60 °F  
Max Temperature 76 °F 73 °F 94 °F (2002)
Min Temperature 48 °F 47 °F 26 °F (1984)
Degree Days  
Heating Degree Days 3 7  
Month to date heating degree days 148 87  
Since 1 July heating degree days 148 93  
Cooling Degree Days 0 2  
Month to date cooling degree days 60 122  
Year to date cooling degree days 1259 1157  
Growing Degree Days 12 (Base 50)    
Moisture  
Dew Point 39 °F    
Average Humidity 53    
Maximum Humidity 89    
Minimum Humidity 17    
Precipitation  
Precipitation 0.00 in 0.09 in 1.75 in (1893)
Month to date precipitation 1.33 2.94  
Year to date precipitation 25.00 24.52  
Snow  
Snow 0.00 in 0.00 in - ()
Month to date snowfall 0.0 0.0  
Since 1 July snowfall 0.0 0.0  
Snow Depth 0.00 in    
Sea Level Pressure  
Sea Level Pressure 30.08 in    
Wind  
Wind Speed 14 mph (NNW)    
Max Wind Speed 32 mph    
Max Gust Speed 39 mph    
Visibility 10 miles    
Events      
T = Trace of Precipitation, MM = Missing Value Source: NWS Daily Summary

Daily Weather History Graph

Daily Weather History Graph

Search for Another Location

Airport or City:

Trip Planner

Search our weather history database for the weather conditions in past years. The results will help you decide how hot, cold, wet, or windy it might be!

Date:

Astronomy

Sep. 29, 2011 Rise Set
Actual Time 7:21 AM CDT 7:12 PM CDT
Civil Twilight 6:53 AM CDT 7:40 PM CDT
Nautical Twilight 6:22 AM CDT 8:11 PM CDT
Astronomical Twilight 5:49 AM CDT 8:44 PM CDT
Moon 10:09 AM CDT (9/29) 8:24 PM CDT (9/29)
Length of Visible Light 12h 46m
Length of Day
11h 51m
Waxing Crescent, 7% of the Moon is Illuminated
Sep 29
Waxing Crescent
Oct 3
First Quarter
Oct 11
Full
Oct 19
Last Quarter
Oct 26
New

Hourly Weather History & Observations

Time (CDT) Temp. Dew Point Humidity Pressure Visibility Wind Dir Wind Speed Gust Speed Precip Events Conditions
12:54 AM 55.0 °F 50.0 °F 83% 29.86 in 10.0 mi Calm Calm - N/A   Clear
1:54 AM 55.0 °F 51.1 °F 86% 29.86 in 10.0 mi Calm Calm - N/A   Clear
2:54 AM 54.0 °F 48.9 °F 83% 29.87 in 10.0 mi Calm Calm - N/A   Clear
3:54 AM 51.1 °F 48.0 °F 89% 29.90 in 10.0 mi Calm Calm - N/A   Clear
4:54 AM 63.0 °F 48.9 °F 60% 29.92 in 10.0 mi North 12.7 mph - N/A   Clear
5:54 AM 59.0 °F 46.9 °F 64% 29.96 in 10.0 mi NNW 3.5 mph - N/A   Clear
6:54 AM 61.0 °F 45.0 °F 56% 30.00 in 10.0 mi NNW 9.2 mph - N/A   Clear
7:54 AM 61.0 °F 42.1 °F 50% 30.04 in 10.0 mi NNW 11.5 mph - N/A   Clear
8:54 AM 64.9 °F 42.1 °F 43% 30.08 in 10.0 mi NNW 13.8 mph - N/A   Clear
9:54 AM 68.0 °F 39.9 °F 36% 30.11 in 10.0 mi North 23.0 mph 29.9 mph N/A   Clear
10:54 AM 69.8 °F 37.4 °F 31% 30.14 in 10.0 mi North 28.8 mph 34.5 mph N/A   Mostly Cloudy
11:54 AM 70.0 °F 35.1 °F 28% 30.14 in 10.0 mi NNW 20.7 mph 29.9 mph N/A   Scattered Clouds
12:54 PM 70.0 °F 32.0 °F 25% 30.16 in 10.0 mi NNW 23.0 mph 39.1 mph N/A   Clear
1:54 PM 75.0 °F 30.0 °F 19% 30.14 in 10.0 mi NW 23.0 mph 32.2 mph N/A   Clear
2:54 PM 73.9 °F 26.1 °F 17% 30.14 in 10.0 mi NNW 26.5 mph 38.0 mph N/A   Clear
3:54 PM 73.9 °F 27.0 °F 18% 30.13 in 10.0 mi NNW 25.3 mph 34.5 mph N/A   Clear
4:54 PM 73.4 °F 30.2 °F 20% 30.15 in 10.0 mi NNW 23.0 mph 33.4 mph N/A   Clear
5:54 PM 72.0 °F 32.0 °F 23% 30.13 in 10.0 mi NNW 20.7 mph 27.6 mph N/A   Clear
6:54 PM 69.8 °F 33.8 °F 27% 30.17 in 10.0 mi NNW 18.4 mph - N/A   Clear
7:54 PM 64.9 °F 35.1 °F 33% 30.18 in 10.0 mi NW 6.9 mph - N/A   Clear
8:54 PM 60.1 °F 37.0 °F 42% 30.21 in 10.0 mi NW 4.6 mph - N/A   Clear
9:54 PM 57.0 °F 37.0 °F 47% 30.23 in 10.0 mi NNW 6.9 mph - N/A   Clear
10:54 PM 48.9 °F 37.0 °F 64% 30.24 in 10.0 mi North 5.8 mph - N/A   Clear
11:54 PM 55.9 °F 37.0 °F 49% 30.25 in 10.0 mi NNW 9.2 mph - N/A   Clear